Theta_e
316 313 324 329 337 334 340 339 334 336 331 322 320 319 318 320 327 323 327 333 332 328 328 320 325 322 319 319 321 321 321 323 324 326 329 330 331 330 330 329 328 328 328 328 329 329 328 327 332
312 320 326 331 339 340 337 335 337 333 327 319 318 319 320 321 325 327 334 335 335 327 330 322 325 320 319 320 321 321 323 326 328 332 333 332 331 331 331 332 331 331 331 331 331 331 331 329 328
318 327 330 335 337 339 336 333 332 330 327 319 320 321 320 322 324 327 332 335 335 329 332 325 323 320 320 321 322 323 325 326 329 336 336 336 336 335 334 333 332 332 332 332 332 332 332 332 330
326 329 329 337 338 334 333 332 329 327 326 319 320 323 321 322 324 327 329 331 334 332 333 326 322 321 321 322 324 324 324 325 332 337 336 338 337 336 334 334 332 332 332 332 332 333 334 333 333
329 326 334 335 335 331 328 328 327 327 325 321 321 323 322 321 324 327 326 330 333 334 333 326 322 322 322 324 325 324 324 324 327 336 338 338 336 336 333 333 333 332 332 332 331 332 332 334 333
328 322 330 333 331 328 327 326 327 326 324 322 322 322 321 321 325 326 326 328 330 330 329 326 323 323 325 326 326 325 323 323 325 326 330 332 332 333 333 331 332 332 332 331 331 332 331 331 333
327 327 331 330 331 330 328 325 326 325 325 323 320 323 320 321 324 326 326 327 328 328 327 326 325 326 327 327 325 324 323 324 324 325 325 325 325 325 328 331 331 331 330 330 331 331 332 331 331
324 325 331 329 331 329 327 325 323 325 325 322 322 323 321 320 324 327 329 330 329 328 328 327 328 329 328 327 325 323 322 323 323 324 326 325 325 325 325 326 327 329 329 330 331 329 331 331 331
322 328 328 329 329 328 325 327 324 323 324 322 323 322 322 322 323 329 330 331 330 330 329 329 329 331 328 326 323 323 324 326 326 328 329 326 326 326 325 325 324 326 328 328 329 329 329 329 330
327 327 327 326 326 327 325 327 326 326 325 325 322 321 323 321 321 322 324 326 329 330 330 330 332 328 326 323 323 325 324 328 331 329 326 328 327 326 326 324 323 325 327 328 328 330 331 330 330
326 330 328 326 326 327 327 327 327 326 325 324 323 324 321 319 318 319 322 324 325 327 328 331 331 326 323 324 326 323 324 326 327 330 329 330 328 327 326 325 323 323 325 327 326 326 326 327 329
328 326 328 325 325 327 328 327 328 327 327 326 325 322 320 319 318 318 319 321 322 323 326 328 325 324 325 326 324 323 325 326 326 326 326 329 329 326 325 324 324 323 323 323 323 323 323 323 327
326 326 326 326 324 325 327 328 328 327 327 326 324 320 321 320 319 320 320 320 319 320 322 323 324 325 325 326 324 326 326 326 326 326 327 327 327 326 325 325 325 325 324 323 323 323 323 324 327
322 325 325 324 324 326 327 326 326 326 326 323 322 320 320 320 319 319 319 319 319 319 319 320 323 325 326 324 325 326 327 327 327 327 327 328 327 326 326 326 325 326 325 323 323 323 323 324 325
315 316 315 316 318 319 321 322 323 324 323 322 321 320 320 320 319 318 319 319 318 318 319 322 325 326 325 326 326 327 327 328 328 328 329 328 328 328 327 326 326 327 325 324 324 323 323 323 325
316 315 317 316 318 317 319 320 320 321 320 322 321 320 318 319 319 320 320 319 318 319 320 324 326 326 326 326 327 328 328 329 329 329 328 328 328 328 327 327 326 326 324 324 324 324 323 323 324
314 315 314 313 315 317 319 319 319 320 320 321 321 320 319 319 318 320 320 318 319 320 322 325 327 326 326 327 328 329 329 329 329 329 327 326 328 328 328 326 326 325 325 325 325 324 323 324 325
314 315 314 313 316 315 315 317 318 319 319 320 320 320 320 318 318 318 318 319 320 321 324 326 326 326 327 328 329 329 328 329 329 329 327 327 327 327 327 326 325 325 325 325 325 324 323 324 324
313 314 314 316 318 318 317 318 320 320 319 319 319 319 319 317 317 317 318 319 321 324 326 326 326 327 328 329 329 330 329 329 329 329 328 327 327 328 327 325 325 325 325 324 322 323 324 324 325
316 315 316 317 319 320 319 319 319 319 319 319 320 320 320 319 322 319 318 320 322 324 325 326 326 327 329 329 328 329 328 328 328 329 328 327 327 327 328 326 325 326 325 322 322 323 325 325 325
319 318 317 318 319 319 319 319 319 320 319 320 321 320 320 319 321 319 319 320 322 323 325 326 327 328 331 329 329 328 327 327 327 327 327 326 327 325 325 327 327 326 324 322 322 324 325 325 325
319 319 320 321 318 318 319 322 319 320 321 321 320 318 319 321 322 319 319 319 322 324 325 326 327 330 331 330 329 329 328 327 327 327 326 327 327 327 327 327 326 326 324 322 322 324 325 325 326
318 318 321 319 317 317 318 321 320 319 321 321 320 319 317 320 321 320 319 321 322 324 326 327 329 331 331 330 329 328 327 326 326 326 327 327 327 328 328 327 326 324 324 323 322 324 324 325 325
316 316 316 317 316 320 319 321 321 321 321 321 320 321 321 322 320 319 319 320 321 324 326 328 330 331 331 329 328 326 326 326 326 327 327 327 328 328 327 327 327 326 325 323 323 323 325 324 325
314 313 314 316 319 321 319 321 320 320 320 321 321 319 321 322 320 320 320 319 320 325 327 329 329 330 330 328 327 325 325 325 327 328 328 329 328 328 328 328 327 326 326 323 323 325 325 326 326
313 313 315 317 321 323 320 324 322 320 321 320 320 320 321 322 320 321 320 319 321 325 328 328 328 329 329 328 327 325 325 325 326 326 328 328 329 329 329 328 327 326 325 323 323 325 325 326 326
312 314 313 316 320 322 322 321 320 321 321 321 321 323 322 322 321 320 320 319 321 326 327 327 328 328 328 328 328 326 326 327 326 327 328 329 329 328 329 329 328 324 326 323 324 325 325 326 326
312 313 314 314 321 325 323 324 323 323 323 325 325 323 322 321 321 321 321 319 322 326 327 327 328 327 328 328 328 328 329 329 327 327 327 328 328 328 329 329 328 325 326 325 326 326 326 326 326
310 314 312 312 316 321 323 323 319 322 322 324 324 322 322 322 322 322 321 320 322 325 326 327 327 326 328 328 328 328 329 328 326 327 328 328 328 328 329 329 328 327 327 326 326 326 327 327 327
312 310 311 316 316 316 319 321 319 321 320 322 323 322 321 321 322 322 320 318 320 323 325 326 326 326 328 327 328 328 329 327 325 328 328 328 328 328 328 328 328 328 327 326 327 327 326 325 326
Wind_Speed
11 11 8 3 3 4 4 5 2 5 3 2 4 5 8 5 6 5 3 22 13 30 26 35 29 25 22 20 17 14 14 14 14 13 13 13 13 12 11 9 8 7 6 7 7 7 6 7 5
14 10 3 2 4 0 5 4 5 7 5 1 3 4 3 4 3 3 6 25 16 30 27 34 30 26 24 22 19 16 16 16 16 16 15 15 15 15 14 12 11 10 9 9 8 8 8 9 7
12 3 3 3 3 5 4 5 5 8 8 6 2 3 6 4 3 5 7 25 20 29 29 32 31 29 26 24 21 18 16 17 17 16 17 17 17 16 16 15 15 14 12 12 11 10 11 10 9
5 3 3 2 6 6 5 7 2 7 6 4 5 5 3 7 6 8 14 25 24 28 30 32 32 30 27 23 20 18 17 17 16 17 18 18 18 17 18 17 17 16 15 15 14 14 13 13 12
3 3 1 2 5 5 6 8 3 6 5 4 4 5 4 4 8 13 17 26 27 30 32 33 33 29 26 24 21 18 16 14 12 16 17 17 17 18 17 19 19 18 18 17 17 16 16 16 15
3 3 1 4 4 5 6 8 2 3 4 2 2 2 5 3 12 19 24 27 28 29 32 32 31 28 27 23 20 17 16 14 12 13 14 15 15 16 16 19 18 19 19 18 19 19 20 19 17
5 3 4 3 4 5 6 4 3 1 3 5 3 4 5 6 13 18 27 26 27 28 29 31 30 29 25 23 22 19 15 14 14 14 14 13 13 13 14 16 17 17 18 20 20 20 19 19 18
5 4 3 5 3 7 4 1 2 3 6 1 2 5 8 5 15 22 27 26 26 27 27 29 29 28 27 25 21 17 15 15 16 17 17 16 14 12 11 13 15 15 18 19 19 19 18 19 17
4 2 5 6 7 7 3 2 0 1 4 3 5 5 5 4 19 25 24 24 26 26 28 29 30 29 26 23 19 15 15 15 17 17 17 16 16 13 13 14 14 14 14 15 17 18 20 21 20
5 5 10 8 7 7 5 2 3 4 8 11 6 6 8 16 24 20 17 22 30 31 32 32 31 29 26 22 18 15 15 18 18 18 19 18 17 14 14 14 14 14 13 14 15 15 16 19 20
7 10 15 7 9 3 6 9 3 3 8 8 8 15 3 9 15 16 21 26 37 39 34 33 31 28 26 22 17 13 13 17 19 20 21 20 18 17 16 16 14 12 14 16 16 18 16 12 18
4 11 18 12 5 3 8 5 13 10 18 15 14 9 5 10 14 16 22 29 30 36 36 33 31 29 25 20 14 11 13 15 16 16 17 20 19 18 17 17 15 13 13 14 15 15 14 15 16
8 12 8 9 10 7 13 13 15 15 22 14 11 8 11 13 19 26 32 25 27 35 35 32 30 28 24 18 11 13 15 15 12 12 13 16 18 19 18 18 17 15 13 14 14 13 12 13 14
6 9 9 4 10 12 16 20 4 12 17 13 11 12 11 13 20 22 19 28 31 32 31 30 31 28 21 15 13 13 15 14 13 13 14 15 16 18 19 19 18 18 14 13 13 12 12 12 13
4 4 8 10 11 7 14 20 10 18 13 12 16 13 11 14 12 20 35 33 25 28 28 31 31 25 19 14 13 14 14 13 12 13 13 14 15 17 19 19 20 19 14 12 12 11 11 12 13
1 2 4 5 5 7 9 17 10 19 11 16 15 12 10 13 17 32 27 25 24 26 28 33 29 23 17 15 13 13 12 10 10 9 9 11 13 16 16 17 14 12 12 12 13 12 12 13 14
1 9 7 7 8 5 9 16 17 7 7 13 16 12 10 14 10 26 27 22 23 26 32 32 26 21 17 15 12 11 10 9 9 8 8 8 10 13 14 14 13 12 12 12 13 13 13 13 14
7 6 6 12 1 4 12 15 19 17 10 16 12 14 12 12 20 9 17 22 26 30 35 30 24 20 17 12 10 8 5 7 9 9 8 9 10 12 11 13 13 13 12 11 12 14 14 12 15
15 9 10 14 2 3 8 9 18 12 7 11 11 11 12 12 4 8 20 28 31 35 35 29 25 20 16 11 9 5 4 7 8 8 8 9 10 9 10 9 10 12 12 10 12 14 14 11 14
9 14 21 16 6 4 11 13 17 15 12 11 13 14 11 4 3 3 16 21 27 36 34 29 23 20 14 9 4 2 5 5 6 7 6 10 8 6 10 10 10 10 12 12 16 15 11 5 15
19 20 18 17 5 5 6 10 16 13 7 7 10 11 9 9 8 7 8 18 24 31 33 27 22 17 12 7 3 2 4 5 4 3 5 5 3 3 6 6 8 11 13 16 16 14 10 8 12
22 17 14 14 3 5 4 6 12 12 11 7 10 8 8 0 5 8 9 13 23 31 28 24 20 15 11 6 2 3 4 3 2 5 5 4 2 4 5 6 6 10 13 15 16 13 11 10 12
12 10 12 9 5 1 3 4 7 5 9 11 10 9 6 4 8 11 12 20 25 29 26 22 18 14 10 5 2 4 1 0 2 3 5 3 2 5 5 5 7 10 12 13 16 15 11 11 14
5 6 4 2 3 4 10 7 6 5 9 8 7 4 4 6 9 10 15 22 25 25 23 21 16 12 9 5 1 0 3 2 4 5 4 5 2 4 6 6 8 10 11 13 15 14 11 10 13
10 9 1 3 1 5 7 8 15 9 9 12 12 7 5 8 9 14 16 13 20 25 24 19 15 12 9 6 2 4 2 1 4 5 5 4 2 1 4 6 9 9 11 13 14 14 11 11 12
17 12 7 7 4 4 7 8 7 18 22 9 6 3 8 9 7 13 12 14 20 25 25 19 15 13 10 7 4 4 1 3 4 5 3 4 4 2 3 8 8 9 10 13 15 14 11 9 9
6 15 9 4 2 1 4 5 7 7 8 7 7 6 9 9 8 11 10 15 19 25 26 20 16 12 11 7 5 3 2 2 4 4 3 3 4 3 5 9 9 10 11 13 14 13 12 10 9
14 11 7 4 7 5 4 3 5 7 9 6 6 9 7 7 9 10 10 13 20 27 25 19 17 14 12 8 5 4 2 2 3 3 5 4 4 5 5 10 9 10 11 13 13 13 12 11 10
5 9 3 6 5 5 1 6 7 8 7 9 8 8 9 12 12 12 10 15 22 27 24 21 17 14 13 10 6 4 2 2 3 4 6 6 6 6 6 9 11 11 12 13 14 13 13 13 12
20 9 9 9 7 3 3 6 4 7 7 8 8 8 7 8 10 11 11 14 18 23 23 22 19 16 15 11 7 5 3 4 5 6 5 6 6 7 9 10 13 13 13 13 13 12 11 12 12
Wind_Direction
165 151 140 117 63 71 256 258 259 294 335 251 111 155 193 167 168 210 290 179 181 183 187 190 194 194 198 202 206 210 214 218 223 224 226 227 230 230 229 233 247 254 260 261 267 267 270 267 256
157 146 99 90 104 116 257 247 229 231 238 270 190 157 189 242 199 260 135 174 189 185 186 190 194 196 200 204 210 215 219 222 226 228 226 230 234 233 239 240 240 245 250 255 260 267 262 262 256
146 127 91 116 151 199 225 221 250 293 256 208 214 278 155 222 212 196 181 179 183 187 191 191 195 198 201 206 209 212 219 226 228 228 234 233 234 237 232 242 249 245 247 251 253 257 263 262 257
158 37 47 113 228 253 229 266 185 317 333 213 162 257 265 223 166 197 181 179 182 187 192 194 197 200 203 207 210 216 223 229 230 230 240 241 240 243 240 242 251 253 255 252 255 258 251 258 257
77 58 105 240 247 257 244 256 267 282 282 237 156 238 255 237 212 178 177 181 185 189 195 197 200 203 206 210 212 219 225 228 234 233 239 245 247 249 245 244 248 252 255 255 259 257 256 256 251
53 97 87 237 239 247 262 250 211 213 275 305 204 127 257 254 198 180 178 184 189 191 195 199 202 206 209 211 214 220 225 226 236 243 242 243 247 254 253 254 247 249 250 255 256 256 254 253 248
132 110 234 258 246 272 240 191 205 353 301 287 174 174 256 264 212 186 183 187 190 196 198 201 206 208 210 211 215 221 227 231 235 239 235 235 238 248 253 254 254 256 256 257 258 259 262 259 252
124 119 250 235 218 271 236 234 104 51 309 48 150 244 258 252 192 183 184 191 196 201 203 204 206 209 208 210 216 223 231 237 238 236 235 232 236 245 251 261 262 260 258 257 259 260 260 257 251
119 104 249 237 174 244 229 347 47 185 237 251 217 238 252 268 175 177 185 197 205 205 207 207 207 207 208 212 216 223 235 244 240 237 237 239 239 245 248 256 261 265 261 255 254 256 257 257 253
163 170 227 201 191 235 182 174 342 340 317 287 257 281 281 181 175 175 185 203 210 211 209 209 204 204 206 211 214 226 247 242 239 238 238 238 241 247 255 255 258 258 255 258 261 264 264 252 250
195 211 232 274 238 345 293 287 207 268 281 250 283 293 219 184 199 190 201 204 211 211 210 205 203 203 204 205 210 236 240 245 244 239 240 239 238 243 247 247 251 251 249 253 257 260 262 261 246
188 235 238 249 254 256 257 322 298 261 259 275 279 256 193 204 209 201 208 212 211 211 209 204 202 202 199 199 220 231 230 238 239 239 242 234 235 241 249 246 247 249 255 256 258 261 255 256 239
227 238 240 264 287 256 273 262 255 285 283 282 269 260 226 209 216 215 213 216 217 215 208 204 201 199 191 203 215 224 230 238 246 240 240 236 242 249 248 249 247 252 259 254 259 259 255 247 233
222 225 248 261 273 273 278 270 260 258 276 288 289 257 238 213 218 220 215 220 219 216 206 201 196 190 193 205 217 230 237 245 247 248 246 248 251 249 248 253 250 248 252 255 259 263 251 248 234
230 266 269 231 236 246 269 277 249 267 271 263 270 261 242 226 220 224 222 217 212 211 202 192 184 187 199 206 223 234 244 246 256 256 253 257 253 252 251 252 258 248 247 252 250 252 240 238 231
300 161 262 190 223 241 187 277 264 266 257 262 261 262 245 243 218 229 231 219 208 200 194 184 183 188 198 210 224 236 243 254 259 251 262 265 260 253 247 249 247 234 244 250 245 238 232 227 223
325 258 256 298 211 212 186 279 267 269 252 272 272 271 257 259 238 233 224 207 200 195 182 178 182 192 197 208 222 240 253 258 256 263 277 279 269 256 245 240 243 239 244 249 240 228 220 212 206
196 246 229 246 319 173 269 266 272 272 250 257 269 268 266 251 247 237 195 195 188 187 178 175 181 187 191 204 223 240 258 263 256 266 281 286 286 266 247 236 240 238 239 238 225 209 198 204 203
225 225 238 253 197 232 251 271 275 278 253 260 261 266 256 241 235 199 186 180 175 178 170 169 174 181 186 196 215 230 265 273 270 266 280 293 294 269 234 226 231 231 228 223 189 180 187 190 191
199 228 245 275 230 226 271 273 283 286 267 253 266 274 265 221 206 137 143 155 161 161 165 167 176 177 180 192 192 243 290 278 286 284 279 303 309 260 221 222 229 224 200 187 180 182 173 162 169
216 217 233 245 358 257 299 289 286 284 261 280 261 247 266 229 185 140 137 144 150 156 163 170 173 174 174 179 168 273 292 293 298 303 297 320 298 186 191 222 232 207 191 184 182 185 179 138 174
219 209 240 251 162 244 113 289 292 302 287 247 280 293 285 241 122 139 135 141 148 162 166 166 168 172 174 168 198 296 312 307 328 318 310 323 219 212 224 240 216 190 188 188 188 188 191 169 165
231 185 208 226 212 306 248 273 270 309 289 285 284 288 279 141 145 147 146 147 157 162 165 165 167 173 167 173 244 306 307 284 348 321 302 322 251 218 222 223 203 184 185 186 189 196 199 200 181
178 94 71 72 130 252 238 198 251 217 227 268 271 292 109 127 131 133 138 147 155 163 163 164 170 167 166 179 227 231 129 83 2 328 324 331 283 222 222 225 199 192 187 186 192 193 200 206 203
165 125 286 310 242 222 203 194 245 261 238 232 253 250 170 139 151 149 152 153 153 162 166 168 167 161 176 176 178 137 121 59 7 332 331 18 65 146 197 196 188 187 179 181 183 188 193 197 196
182 172 161 189 203 243 192 210 245 219 233 231 241 217 151 146 166 160 159 154 158 167 169 169 166 172 172 180 172 144 116 38 358 346 19 53 67 83 172 174 173 167 167 173 178 184 187 186 193
190 210 162 131 228 133 227 265 299 222 218 231 223 169 175 152 161 153 159 159 160 169 173 170 175 174 176 185 164 157 90 21 10 28 57 78 63 92 161 166 158 158 159 171 177 180 177 180 179
185 138 172 205 195 227 287 251 219 200 215 196 203 199 156 132 150 153 165 163 168 175 175 177 181 180 180 185 165 139 89 21 31 59 75 67 68 100 125 164 156 158 158 167 169 164 167 166 162
148 178 141 160 152 171 180 259 216 200 199 211 220 184 159 166 164 166 166 171 173 178 178 185 187 183 184 187 169 134 97 72 75 103 78 60 67 85 110 140 155 161 161 160 164 154 153 161 151
199 180 165 195 192 173 168 262 250 226 215 203 199 161 157 150 161 164 167 158 167 177 182 192 192 191 191 189 174 141 116 103 90 116 94 59 77 104 119 131 149 154 162 164 161 152 154 157 149